Regional Weather Roundup
Issued by NWS

Home | Current Version | Previous Version | Text Only | Print | Product List | Glossary Off
Versions: 1 2 3 4 5 6 7 8 9 10 11 12 13 14 15 16 17 18 19 20 21 22 23 24 25 26 27 28 29 30 31 32 33 34 35 36 37 38 39 40 41 42 43 44 45 46 47 48 49 50

000
ASUS43 KIND 020559
RWRIN

WEATHER ROUNDUP FOR INDIANA
NATIONAL WEATHER SERVICE INDIANAPOLIS IN
200 AM EDT SUN AUG 02 2015

NOTE: "FAIR" INDICATES FEW OR NO CLOUDS BELOW 12,000 FEET WITH NO
SIGNIFICANT WEATHER AND/OR OBSTRUCTIONS TO VISIBILITY.

* - STATION DOES NOT REPORT WEATHER SUCH AS PRECIPITATION OR FOG.

+ - STATION NOT QUALITY CONTROLLED BY THE NATIONAL WEATHER SERVICE.
    USE DATA WITH CAUTION...ESPECIALLY DEWPOINT AND RELATIVE
    HUMIDITY OBSERVATIONS.

INZ001>003-010>013-019-020-020700-
NORTHWEST INDIANA

CITY           SKY/WX    TMP DP  RH WIND       PRES   REMARKS

$$

LMZ046-743>745-020700-
SOUTHERN LAKE MICHIGAN

STATION/POSITION TIME  TEMP    WIND        PRES    WAVE
                       AIR SEA DIR/SP/G            HT
                 (UTC) (F)     (DEG/KT/KT) (MB)    (FT)
BURNS HARBOR     0540   76     230/ 10/ 15 1013.2R
MICHIGAN CITY    0500   75     190/ 12/ 14   N/A
5NW MICH CITY    0500   76 74  240/ 12/ 14   N/A     2

$$

INZ004-005-014>016-021>024-020700-
NORTH CENTRAL INDIANA

CITY           SKY/WX    TMP DP  RH WIND       PRES   REMARKS
GOSHEN         PTCLDY    68  62  81 SW9       29.91S
6HR MIN TEMP:  68; 6HR MAX TEMP:  78;

SOUTH BEND     NOT AVBL

$$

INZ006>009-017-018-025>027-020700-
NORTHEAST INDIANA

CITY           SKY/WX    TMP DP  RH WIND       PRES   REMARKS
ANGOLA *+      PTCLDY    68  63  83 CALM      29.92R
FORT WAYNE     NOT AVBL

$$

INZ028-029-035-036-043>045-051>053-020700-
WEST CENTRAL INDIANA

CITY           SKY/WX    TMP DP  RH WIND       PRES   REMARKS
LAFAYETTE      NOT AVBL
TERRE HAUTE    CLEAR     63  61  93 CALM      29.98S
6HR MIN TEMP:  63; 6HR MAX TEMP:  81;


$$

INZ030>032-037>040-046>048-054>057-064-065-020700-
CENTRAL INDIANA

CITY           SKY/WX    TMP DP  RH WIND       PRES   REMARKS
GREENWOOD *+   PTCLDY    66  57  72 SW3       30.00R
INDIANAPOLIS   NOT AVBL
-EAGLE CREEK   MOCLDY    68  61  78 CALM      29.98R
6HR MIN TEMP:  68; 6HR MAX TEMP:  79;

SHELBYVILLE    PTCLDY    66  60  81 S5        29.98S
6HR MIN TEMP:  65; 6HR MAX TEMP:  79;


$$

INZ033-034-041-042-049-050-058-059-020700-
EAST CENTRAL INDIANA

CITY           SKY/WX    TMP DP  RH WIND       PRES   REMARKS
MUNCIE         NOT AVBL

$$

INZ060-061-067>069-081>083-085>088-020700-
SOUTHWEST INDIANA

CITY           SKY/WX    TMP DP  RH WIND       PRES   REMARKS
EVANSVILLE     NOT AVBL

$$

INZ062-063-066-070>080-084-089>092-020700-
SOUTH CENTRAL AND SOUTHEAST INDIANA

CITY           SKY/WX    TMP DP  RH WIND       PRES   REMARKS
BLOOMINGTON    PTCLDY    61  60  97 CALM      30.00S
6HR MIN TEMP:  61; 6HR MAX TEMP:  79;

SEYMOUR +      CLEAR     61  61 100 CALM      30.00S

$$



USA.gov is the U.S. government's official web portal to all federal, state and local government web resources and services.